Flag for Switzerland Weather past 2 weeks in Lucerne, Lucerne, Switzerland

Now
50 °F

Cool.


Feels Like: 49 °F
Forecast: 34 / 56 °F
Wind: 3 mph from Southwest

Location: Giswil

Current Time: Mar 27, 2015 at 5:32:04 PM

Latest Report: Mar 27, 2015 at 4:00 PM


Visibility: N/A

Pressure: 30.16 "Hg

Humidity: 50%

Dew point: 32 °F

Location of LucerneLocation

Historic Weather in Lucerne — Graph

°F

Lucerne temperature yesterday

Maximum temperature yesterday: 45 °F (at 2:00 PM)
Minimum temperature yesterday: 40 °F (at 6:00 AM)
Average temperature yesterday: 42 °F

Past Weeks' High & Low Weather Summary

 TemperatureHumidityPressure
High63 °F (Mar 18, 2:40 PM)99% (Mar 19, 7:00 AM)30.33 "Hg (Mar 19, 7:00 AM)
Low24 °F (Mar 13, 3:00 AM)23% (Mar 16, 12:00 AM)29.62 "Hg (Mar 25, 2:00 PM)
Average42 °F79%30.08 "Hg
* Reported Mar 12 4:00 PM — Mar 27 4:00 PM, Lucerne, Weather by CustomWeather, © 2015

Note: Actual official high and low records may vary slightly from our data, if they occured in-between our weather recording intervals... More about our weather records

Advertising

Lucerne weather history for previous 24 hours

 ConditionsComfort  
Time TempWeatherWind HumidityBarometerVisibility
4:00 PM
Fri, Mar 27
50 °FCool.3 mph50%30.16 "HgN/A
3:00 PM51 °FCool.8 mph54%30.15 "HgN/A
2:00 PM51 °FCool.7 mph50%30.13 "HgN/A
1:00 PM50 °FCool.14 mph63%30.15 "HgN/A
12:00 PM46 °FCool.1 mph81%30.17 "HgN/A
11:00 AM44 °FQuite cool.1 mph86%30.16 "HgN/A
10:00 AM43 °FQuite cool.2 mph90%30.15 "HgN/A
9:00 AM42 °FQuite cool.1 mph93%30.14 "HgN/A
8:00 AM41 °FQuite cool.2 mph98%30.11 "HgN/A
6:00 AM41 °FQuite cool.1 mph99%30.07 "HgN/A
5:00 AM41 °FQuite cool.1 mph99%30.05 "HgN/A
3:00 AM41 °FQuite cool.1 mph99%30.03 "HgN/A
2:00 AM41 °FQuite cool.No wind98%30.01 "HgN/A
12:00 AM41 °FQuite cool.1 mph99%29.98 "HgN/A
11:00 PM
Thu, Mar 26
41 °FQuite cool.1 mph97%29.97 "HgN/A
9:00 PM43 °FQuite cool.3 mph88%29.94 "HgN/A
8:00 PM43 °FQuite cool.2 mph84%29.91 "HgN/A
7:00 PM43 °FQuite cool.3 mph85%29.91 "HgN/A
6:00 PM44 °FQuite cool.1 mph84%29.91 "HgN/A
5:00 PM44 °FQuite cool.2 mph83%29.90 "HgN/A
Weather by CustomWeather, © 2015

See weather overviewHow to use our weather pages